BRIK-II (48876 NORAD) Tracking and Keplerian Element Data

This shows tracking and keplerian element data for the satellite.

Feedback or suggestion? Click here.




ElementValue
Catalog48876
NameBRIK-II
Epoch Orbit1222
Epoch Day262.09663823
Epoch Year2021
RAAN283.3406
Inclination60.6937
Eccentricity0.0026766
Argument of Perigee4.2128
Mean Anonmoly31.8421
Mean Motion15.19162339
Decay Rate2.97E-06
L11 48876U 21058F 21262.09663823 .00000297 00000-0 26570-4 0 9991
L22 48876 60.6937 283.3406 0026766 4.2128 31.8421 15.19162339 12222

Live tracking and technical data element details for BRIK-II (NORAD 48876). BRIK-II can be tracked NOW for your location showing map with azimuth and elevation plus other details from your city location.

Track the satellite on the map from your city or location and see movement details for azimuth, elevation, latitude, longitude, range, height, and movement on the map or in text.







IsCatalogInMostPopularTable: catalog: 48876, numindb: 19
Update: records affected: 1



GetName: 48876 BRIK-II

Hit Count: updated at: Fri, 24 Sep 2021 18:54:12 GMT